SWR188 LSZH-ZSPD

Flight info

Callsign SWR188
Flight time N/A
Altitude 33000
Route DEGES Z2 UMVEG DCT DIMLO DCT INVED DCT SOKRU DCT DINRO DCT UDROS DCT CRM/N0480F350 UM11 REBLO M11 MATAL T916 LEYLA N161 GASBI/K0882F350 N161 RITET/K0863F370 N161 GOMAL/K0865F371 N161 BURID/K0865F370 N161 SARIN/K0880S1070 A368 FKG W188 LIKMI W270 DKO W64 NUTLO B208 CGO W129 KAMDA W128 DUDBI/K0870S1190 W128 FYG B208 HFE R343 SASAN SAS81A
Aircraft A343/H-SDE2E3FGHIJ4J5LM1OP2RVWXYZ/LB1D1

Departure

Time N/A
Airport Zürich Airport (LSZH)

Arrival

Time 2026-05-06 10:10
Airport Shanghai Pudong International Airport (ZSPD)
Time Latitude Longitude Altitude Speed Heading
2026-05-06 01:49 40.94090 41.56884 35018 ft 487 kts 94°
2026-05-06 01:49 40.93918 41.61359 35013 ft 487 kts 94°
2026-05-06 01:50 40.93567 41.70311 35010 ft 487 kts 95°
2026-05-06 01:50 40.93210 41.79234 35016 ft 489 kts 95°
2026-05-06 01:51 40.92846 41.88194 35009 ft 487 kts 95°
2026-05-06 01:51 40.92474 41.97151 35020 ft 487 kts 95°
2026-05-06 01:52 40.92095 42.06099 35019 ft 487 kts 95°
2026-05-06 01:52 40.91711 42.14993 35017 ft 488 kts 95°
2026-05-06 01:53 40.91315 42.23988 35018 ft 489 kts 95°
2026-05-06 01:53 40.90914 42.32972 35001 ft 489 kts 96°
2026-05-06 01:54 40.90507 42.41924 35014 ft 487 kts 96°
2026-05-06 01:54 40.90093 42.50869 34993 ft 487 kts 96°
2026-05-06 01:55 40.89673 42.59767 35003 ft 488 kts 96°
2026-05-06 01:55 40.89244 42.68740 35004 ft 489 kts 96°
2026-05-06 01:56 40.88808 42.77722 34998 ft 489 kts 96°
2026-05-06 01:56 40.88366 42.86687 34995 ft 489 kts 96°
2026-05-06 01:57 40.87916 42.95642 34994 ft 489 kts 97°
2026-05-06 01:57 40.87461 43.04578 34996 ft 490 kts 97°
2026-05-06 01:58 40.86995 43.13586 34989 ft 491 kts 97°
2026-05-06 01:58 40.86523 43.22594 34988 ft 491 kts 97°
2026-05-06 01:59 40.86044 43.31588 34987 ft 491 kts 97°
2026-05-06 01:59 40.85560 43.40535 34989 ft 491 kts 97°
2026-05-06 02:00 40.85067 43.49530 34981 ft 490 kts 97°
2026-05-06 02:00 40.84566 43.58520 34982 ft 489 kts 97°
2026-05-06 02:01 40.84064 43.67435 34976 ft 489 kts 97°
2026-05-06 02:01 40.83656 43.76415 34964 ft 490 kts 96°
2026-05-06 02:02 40.83407 43.85454 34975 ft 492 kts 95°
2026-05-06 02:02 40.83153 43.94434 34962 ft 492 kts 96°
2026-05-06 02:03 40.82856 44.03449 34972 ft 491 kts 96°
2026-05-06 02:03 40.82541 44.12446 34978 ft 490 kts 96°
2026-05-06 02:04 40.82218 44.21452 34977 ft 491 kts 97°
2026-05-06 02:04 40.81889 44.30476 34984 ft 491 kts 97°
2026-05-06 02:05 40.81556 44.39431 34987 ft 491 kts 97°
2026-05-06 02:05 40.81215 44.48441 34976 ft 491 kts 97°
2026-05-06 02:06 40.80870 44.57440 34979 ft 490 kts 97°
2026-05-06 02:06 40.80518 44.66429 34974 ft 492 kts 98°
2026-05-06 02:07 40.80147 44.75480 34975 ft 494 kts 98°
2026-05-06 02:07 40.79776 44.84477 34968 ft 494 kts 98°
2026-05-06 02:08 40.79397 44.93541 34968 ft 494 kts 98°
2026-05-06 02:08 40.79013 45.02586 34955 ft 493 kts 98°
2026-05-06 02:09 40.78622 45.11627 34964 ft 494 kts 98°
2026-05-06 02:09 40.78220 45.20692 34958 ft 495 kts 98°
2026-05-06 02:10 40.77811 45.29755 34952 ft 495 kts 99°
2026-05-06 02:10 40.77396 45.38830 34954 ft 495 kts 99°
2026-05-06 02:11 40.77004 45.47842 34907 ft 497 kts 96°
2026-05-06 02:11 40.77555 45.57021 34949 ft 504 kts 88°
2026-05-06 02:12 40.78479 45.66218 34954 ft 505 kts 87°
2026-05-06 02:12 40.79451 45.75343 34943 ft 505 kts 87°
2026-05-06 02:13 40.80411 45.84540 34949 ft 505 kts 87°
2026-05-06 02:13 40.81348 45.93746 34944 ft 505 kts 88°
2026-05-06 02:14 40.82272 46.02952 34947 ft 505 kts 88°
2026-05-06 02:14 40.83187 46.12149 34950 ft 507 kts 88°
2026-05-06 02:15 40.84094 46.21329 34943 ft 508 kts 88°
2026-05-06 02:15 40.85002 46.30580 34948 ft 508 kts 88°
2026-05-06 02:16 40.85902 46.39836 34957 ft 508 kts 88°
2026-05-06 02:16 40.86794 46.49090 34955 ft 508 kts 88°
2026-05-06 02:17 40.87679 46.58344 34960 ft 507 kts 88°
2026-05-06 02:17 40.88551 46.67545 34942 ft 508 kts 88°
2026-05-06 02:18 40.89423 46.76840 34966 ft 510 kts 89°
2026-05-06 02:18 40.90675 46.86122 34977 ft 515 kts 82°
2026-05-06 02:19 40.92337 46.95336 34972 ft 516 kts 81°
2026-05-06 02:19 40.94061 47.04563 34979 ft 517 kts 81°
2026-05-06 02:20 40.96633 47.18435 34984 ft 518 kts 81°
2026-05-06 02:21 40.98318 47.27633 34982 ft 517 kts 82°
2026-05-06 02:21 41.00006 47.36906 34979 ft 518 kts 82°
2026-05-06 02:22 41.01689 47.46201 34974 ft 519 kts 81°
2026-05-06 02:22 41.03354 47.55437 34965 ft 519 kts 81°
2026-05-06 02:23 41.05025 47.64751 34959 ft 519 kts 81°
2026-05-06 02:23 41.06685 47.74054 34950 ft 518 kts 81°
2026-05-06 02:24 41.08337 47.83353 34951 ft 518 kts 81°
2026-05-06 02:24 41.09985 47.92610 34942 ft 519 kts 79°
2026-05-06 02:25 41.12917 48.01414 34940 ft 527 kts 59°
2026-05-06 02:25 41.17101 48.09426 34957 ft 528 kts 56°
2026-05-06 02:26 41.21476 48.17278 34968 ft 528 kts 55°
2026-05-06 02:26 41.25843 48.25126 34970 ft 527 kts 56°
2026-05-06 02:27 41.30168 48.32985 34989 ft 526 kts 56°
2026-05-06 02:27 41.34446 48.40811 35000 ft 526 kts 56°
2026-05-06 02:28 41.38746 48.48707 34997 ft 526 kts 56°
2026-05-06 02:28 41.43045 48.56619 35004 ft 526 kts 56°
2026-05-06 02:29 41.47397 48.64462 35004 ft 526 kts 54°
2026-05-06 02:29 41.51791 48.72279 35003 ft 526 kts 54°
2026-05-06 02:30 41.56047 48.80154 35004 ft 526 kts 58°
2026-05-06 02:30 41.60086 48.88300 35004 ft 525 kts 59°
2026-05-06 02:31 41.64108 48.96470 35004 ft 525 kts 58°
2026-05-06 02:31 41.68147 49.04586 35004 ft 526 kts 58°
2026-05-06 02:32 41.72196 49.12686 35004 ft 526 kts 58°
2026-05-06 02:32 41.76252 49.20814 35004 ft 525 kts 58°
2026-05-06 02:33 41.80254 49.28859 35003 ft 525 kts 58°
2026-05-06 02:33 41.81588 49.31544 35004 ft 525 kts 58°
2026-05-06 02:34 41.88766 49.44781 35002 ft 526 kts 54°
2026-05-06 02:34 41.93107 49.52604 35004 ft 526 kts 55°
2026-05-06 02:35 41.97442 49.60534 35014 ft 526 kts 55°
2026-05-06 02:35 42.01757 49.68499 35005 ft 526 kts 56°
2026-05-06 02:36 42.06059 49.76468 35004 ft 526 kts 56°
2026-05-06 02:36 42.10349 49.84435 35004 ft 526 kts 56°
2026-05-06 02:37 42.14635 49.92412 35008 ft 525 kts 56°
2026-05-06 02:37 42.18888 50.00346 35001 ft 525 kts 56°
2026-05-06 02:38 42.23170 50.08357 35002 ft 525 kts 56°
2026-05-06 02:38 42.27443 50.16371 35001 ft 526 kts 56°
2026-05-06 02:39 42.31717 50.24411 34995 ft 526 kts 56°
2026-05-06 02:39 42.35955 50.32402 34998 ft 526 kts 56°
2026-05-06 02:40 42.40218 50.40462 34999 ft 527 kts 56°
2026-05-06 02:40 42.44480 50.48533 34998 ft 527 kts 56°
2026-05-06 02:41 42.48168 50.55116 34995 ft 528 kts 53°
2026-05-06 02:41 42.52721 50.62936 34994 ft 529 kts 53°
2026-05-06 02:42 42.57264 50.70799 34996 ft 529 kts 54°
2026-05-06 02:42 42.61782 50.78718 34990 ft 529 kts 54°
2026-05-06 02:43 42.66257 50.86611 34986 ft 530 kts 54°
2026-05-06 02:43 42.70764 50.94587 34987 ft 531 kts 54°
2026-05-06 02:44 42.75263 51.02565 34990 ft 531 kts 54°
2026-05-06 02:44 42.79754 51.10548 34990 ft 532 kts 54°
2026-05-06 02:45 42.84221 51.18509 34983 ft 532 kts 54°
2026-05-06 02:45 42.88716 51.26550 34977 ft 532 kts 54°
2026-05-06 02:46 42.93185 51.34560 34969 ft 529 kts 54°
2026-05-06 02:46 42.97612 51.42509 34968 ft 529 kts 54°
2026-05-06 02:47 43.02063 51.50525 34968 ft 529 kts 54°
2026-05-06 02:47 43.06516 51.58571 34962 ft 532 kts 54°
2026-05-06 02:48 43.10986 51.66669 34960 ft 533 kts 54°
2026-05-06 02:48 43.15453 51.74783 34965 ft 533 kts 54°
2026-05-06 02:49 43.19922 51.82923 34959 ft 536 kts 54°
2026-05-06 02:49 43.24381 51.91066 34968 ft 537 kts 54°
2026-05-06 02:50 43.28862 51.99274 34971 ft 537 kts 54°
2026-05-06 02:50 43.33348 52.07513 34957 ft 539 kts 55°
2026-05-06 02:51 43.37805 52.15723 34957 ft 540 kts 55°
2026-05-06 02:51 43.42292 52.24009 34956 ft 540 kts 55°
2026-05-06 02:52 43.46773 52.32308 34952 ft 542 kts 56°
2026-05-06 02:52 43.51267 52.40657 34950 ft 543 kts 56°
2026-05-06 02:53 43.55763 52.49032 34949 ft 543 kts 56°
2026-05-06 02:53 43.60246 52.57406 34948 ft 544 kts 56°
2026-05-06 02:54 43.64736 52.65817 34948 ft 544 kts 56°
2026-05-06 02:54 43.69218 52.74246 34957 ft 543 kts 55°
2026-05-06 02:55 43.73660 52.82653 34950 ft 540 kts 55°
2026-05-06 02:55 43.78056 52.91000 34946 ft 539 kts 55°
2026-05-06 02:56 43.82482 52.99423 34944 ft 539 kts 55°
2026-05-06 02:56 43.86905 53.07863 34941 ft 542 kts 56°
2026-05-06 02:57 43.91306 53.16275 34944 ft 542 kts 56°
2026-05-06 02:57 43.95723 53.24757 34946 ft 542 kts 56°
2026-05-06 02:58 44.00136 53.33260 34946 ft 543 kts 56°
2026-05-06 02:58 44.04548 53.41783 34944 ft 543 kts 56°
2026-05-06 02:59 44.08960 53.50328 34945 ft 543 kts 56°
2026-05-06 02:59 44.13341 53.58839 34943 ft 544 kts 56°
2026-05-06 03:00 44.17740 53.67409 34945 ft 544 kts 56°
2026-05-06 03:00 44.22145 53.76014 34955 ft 544 kts 56°
2026-05-06 03:01 44.26534 53.84616 34956 ft 544 kts 57°
2026-05-06 03:01 44.30914 53.93226 34948 ft 544 kts 57°
2026-05-06 03:02 44.35259 54.01791 34950 ft 544 kts 57°
2026-05-06 03:02 44.39625 54.10423 34947 ft 544 kts 57°
2026-05-06 03:03 44.43993 54.19087 34946 ft 544 kts 57°
2026-05-06 03:03 44.48350 54.27754 34972 ft 544 kts 57°
2026-05-06 03:04 44.52695 54.36422 34938 ft 541 kts 57°
2026-05-06 03:04 44.57018 54.45074 34941 ft 542 kts 57°
2026-05-06 03:05 44.61312 54.53694 34937 ft 542 kts 57°
2026-05-06 03:05 44.65711 54.62304 34925 ft 544 kts 51°
2026-05-06 03:06 44.71071 54.69837 34947 ft 546 kts 44°
2026-05-06 03:06 44.76673 54.77053 34934 ft 546 kts 43°
2026-05-06 03:07 44.82314 54.84233 34934 ft 546 kts 43°
2026-05-06 03:07 44.87944 54.91446 34936 ft 546 kts 43°
2026-05-06 03:08 44.93555 54.98683 34937 ft 546 kts 43°
2026-05-06 03:08 44.99128 55.05898 34955 ft 546 kts 43°
2026-05-06 03:09 45.04718 55.13166 34927 ft 545 kts 44°
2026-05-06 03:09 45.07265 55.17122 34923 ft 542 kts 55°
2026-05-06 03:09 45.09279 55.21590 34923 ft 536 kts 67°
2026-05-06 03:10 45.12252 55.31233 34940 ft 533 kts 72°
2026-05-06 03:10 45.14925 55.41040 34938 ft 533 kts 73°
2026-05-06 03:11 45.17560 55.50876 34937 ft 533 kts 73°
2026-05-06 03:11 45.20199 55.60644 34935 ft 533 kts 73°
2026-05-06 03:12 45.22861 55.70463 34938 ft 534 kts 73°
2026-05-06 03:12 45.25522 55.80301 34936 ft 534 kts 73°
2026-05-06 03:13 45.28176 55.90156 34934 ft 534 kts 73°
2026-05-06 03:13 45.30821 56.00025 34913 ft 536 kts 73°
2026-05-06 03:14 45.33470 56.09951 34938 ft 537 kts 73°
2026-05-06 03:14 45.36096 56.19827 34939 ft 537 kts 73°
2026-05-06 03:15 45.38730 56.29777 34935 ft 537 kts 74°
2026-05-06 03:15 45.41357 56.39745 34938 ft 537 kts 74°
2026-05-06 03:16 45.43975 56.49718 34938 ft 537 kts 74°
2026-05-06 03:16 45.46583 56.59698 34938 ft 537 kts 74°
2026-05-06 03:17 45.49185 56.69698 34939 ft 537 kts 74°
2026-05-06 03:17 45.51759 56.79628 34938 ft 537 kts 74°
2026-05-06 03:18 45.54344 56.89647 34939 ft 537 kts 74°
2026-05-06 03:18 45.56916 56.99661 34938 ft 537 kts 74°
2026-05-06 03:19 45.59476 57.09673 34938 ft 537 kts 75°
2026-05-06 03:19 45.62033 57.19711 34937 ft 537 kts 75°
2026-05-06 03:20 45.65830 57.34695 34936 ft 537 kts 75°
2026-05-06 03:20 45.68359 57.44731 34934 ft 537 kts 75°
2026-05-06 03:21 45.70879 57.54780 34937 ft 536 kts 75°
2026-05-06 03:21 45.73396 57.64860 34932 ft 536 kts 75°
2026-05-06 03:22 45.75902 57.74937 34918 ft 536 kts 75°
2026-05-06 03:22 45.78395 57.85010 34933 ft 537 kts 75°
2026-05-06 03:23 45.80870 57.95056 34933 ft 537 kts 75°
2026-05-06 03:23 45.83351 58.05170 34930 ft 537 kts 76°
2026-05-06 03:24 45.85823 58.15293 34935 ft 538 kts 76°
2026-05-06 03:24 45.88276 58.25386 34920 ft 539 kts 76°
2026-05-06 03:25 45.90735 58.35547 34928 ft 539 kts 76°
2026-05-06 03:25 45.93189 58.45732 34906 ft 538 kts 75°
2026-05-06 03:26 45.95632 58.55922 34921 ft 539 kts 76°
2026-05-06 03:26 45.98071 58.66137 34917 ft 539 kts 76°
2026-05-06 03:27 46.00485 58.76298 34917 ft 539 kts 76°
2026-05-06 03:27 46.02900 58.86507 34913 ft 539 kts 76°
2026-05-06 03:28 46.05303 58.96717 34919 ft 538 kts 76°
2026-05-06 03:28 46.07698 59.06937 34917 ft 538 kts 76°
2026-05-06 03:29 46.09682 59.15441 34917 ft 538 kts 76°
2026-05-06 03:29 46.12444 59.27333 34914 ft 538 kts 75°
2026-05-06 03:30 46.14426 59.35907 34896 ft 537 kts 75°
2026-05-06 03:30 46.16779 59.46139 34920 ft 537 kts 75°
2026-05-06 03:31 46.19121 59.56362 34916 ft 536 kts 74°
2026-05-06 03:31 46.21439 59.66524 34919 ft 536 kts 75°
2026-05-06 03:32 46.23758 59.76747 34929 ft 536 kts 75°
2026-05-06 03:32 46.26058 59.87005 34927 ft 536 kts 75°
2026-05-06 03:33 46.28343 59.97255 34929 ft 535 kts 74°
2026-05-06 03:33 46.30621 60.07522 34939 ft 535 kts 74°
2026-05-06 03:34 46.32889 60.17782 34935 ft 535 kts 75°
2026-05-06 03:34 46.35130 60.27970 34945 ft 535 kts 75°
2026-05-06 03:35 46.37382 60.38255 34941 ft 535 kts 75°
2026-05-06 03:35 46.39621 60.48530 34947 ft 535 kts 75°
2026-05-06 03:36 46.41853 60.58827 34951 ft 535 kts 75°
2026-05-06 03:36 46.44075 60.69131 34947 ft 536 kts 74°
2026-05-06 03:37 46.46293 60.79465 34951 ft 536 kts 74°
2026-05-06 03:37 46.48491 60.89754 34960 ft 537 kts 75°
2026-05-06 03:38 46.50691 61.00109 34956 ft 536 kts 74°
2026-05-06 03:38 46.52879 61.10461 34959 ft 536 kts 74°
2026-05-06 03:39 46.55061 61.20830 34957 ft 536 kts 74°
2026-05-06 03:39 46.57214 61.31119 34964 ft 536 kts 74°
2026-05-06 03:40 46.59374 61.41496 34961 ft 536 kts 73°
2026-05-06 03:40 46.61522 61.51868 34974 ft 535 kts 73°
2026-05-06 03:41 46.63660 61.62238 34963 ft 535 kts 74°
2026-05-06 03:41 46.65787 61.72612 34977 ft 535 kts 74°
2026-05-06 03:42 46.67904 61.82989 34975 ft 534 kts 73°
2026-05-06 03:42 46.69995 61.93293 34974 ft 534 kts 73°
2026-05-06 03:43 46.72088 62.03667 34961 ft 534 kts 73°
2026-05-06 03:43 46.74173 62.14055 34979 ft 533 kts 73°
2026-05-06 03:44 46.76253 62.24468 34980 ft 534 kts 73°
2026-05-06 03:44 46.78312 62.34834 34983 ft 534 kts 73°
2026-05-06 03:45 46.80369 62.45244 34970 ft 534 kts 73°
2026-05-06 03:45 46.82419 62.55678 35165 ft 532 kts 73°
2026-05-06 03:46 46.83433 62.60856 35435 ft 529 kts 73°
2026-05-06 03:46 46.84439 62.66006 35662 ft 527 kts 73°
2026-05-06 03:46 46.85440 62.71143 35841 ft 526 kts 73°
2026-05-06 03:46 46.86438 62.76284 36002 ft 525 kts 73°
2026-05-06 03:47 46.87434 62.81421 36156 ft 525 kts 73°
2026-05-06 03:47 46.88426 62.86557 36320 ft 524 kts 73°
2026-05-06 03:47 46.89414 62.91681 36457 ft 523 kts 72°
2026-05-06 03:47 46.90396 62.96795 36684 ft 521 kts 72°
2026-05-06 03:48 46.91373 63.01893 36872 ft 519 kts 72°
2026-05-06 03:48 46.92332 63.06909 36985 ft 520 kts 72°
2026-05-06 03:48 46.94281 63.17139 36995 ft 522 kts 72°
2026-05-06 03:49 46.96216 63.27357 37000 ft 520 kts 72°
2026-05-06 03:49 46.98136 63.37556 36999 ft 519 kts 72°
2026-05-06 03:50 47.00048 63.47760 37000 ft 519 kts 72°
2026-05-06 03:50 47.01949 63.57958 37001 ft 519 kts 72°
2026-05-06 03:51 47.03838 63.68156 37013 ft 519 kts 72°
2026-05-06 03:51 47.05708 63.78307 37010 ft 518 kts 72°
2026-05-06 03:52 47.07580 63.88519 37012 ft 518 kts 72°
2026-05-06 03:52 47.09445 63.98746 37015 ft 518 kts 72°
2026-05-06 03:53 47.11298 64.08974 37015 ft 518 kts 73°
2026-05-06 03:53 47.13141 64.19195 37017 ft 518 kts 73°
2026-05-06 03:54 47.14974 64.29426 37017 ft 518 kts 73°
2026-05-06 03:54 47.16800 64.39674 37018 ft 518 kts 73°
2026-05-06 03:55 47.18617 64.49927 37018 ft 518 kts 73°
2026-05-06 03:55 47.20416 64.60119 37022 ft 518 kts 73°
2026-05-06 03:56 47.22223 64.70386 37023 ft 518 kts 73°
2026-05-06 03:56 47.24020 64.80648 37026 ft 518 kts 73°
2026-05-06 03:57 47.25806 64.90918 37031 ft 517 kts 73°
2026-05-06 03:57 47.27569 65.01108 37031 ft 516 kts 73°
2026-05-06 03:58 47.29335 65.11359 37034 ft 516 kts 73°
2026-05-06 03:58 47.31083 65.21619 37034 ft 516 kts 73°
2026-05-06 03:59 47.32819 65.31872 37034 ft 515 kts 73°
2026-05-06 03:59 47.34546 65.42112 37035 ft 514 kts 73°
2026-05-06 04:00 47.36265 65.52363 37046 ft 514 kts 73°
2026-05-06 04:00 47.37974 65.62609 37045 ft 514 kts 73°
2026-05-06 04:01 47.39667 65.72834 37036 ft 510 kts 73°
2026-05-06 04:01 47.41341 65.83005 37037 ft 509 kts 73°
2026-05-06 04:02 47.43031 65.93094 37037 ft 509 kts 73°
2026-05-06 04:02 47.44775 66.03233 37041 ft 509 kts 73°
2026-05-06 04:03 47.46505 66.13350 37036 ft 506 kts 73°
2026-05-06 04:03 47.48212 66.23447 37040 ft 506 kts 73°
2026-05-06 04:04 47.49906 66.33556 37043 ft 506 kts 73°
2026-05-06 04:04 47.51593 66.43678 37047 ft 506 kts 74°
2026-05-06 04:05 47.53269 66.53801 37045 ft 506 kts 74°
2026-05-06 04:05 47.54937 66.63928 37045 ft 506 kts 74°
2026-05-06 04:06 47.56585 66.73991 37048 ft 506 kts 74°
2026-05-06 04:06 47.58194 66.84148 37045 ft 506 kts 75°
2026-05-06 04:07 47.59757 66.94287 37048 ft 504 kts 75°
2026-05-06 04:07 47.61314 67.04408 37048 ft 504 kts 75°
2026-05-06 04:08 47.62872 67.14542 37049 ft 504 kts 75°
2026-05-06 04:08 47.64423 67.24672 37051 ft 503 kts 76°
2026-05-06 04:09 47.65954 67.34744 37047 ft 499 kts 76°
2026-05-06 04:09 47.67473 67.44798 37047 ft 499 kts 76°
2026-05-06 04:10 47.68980 67.54846 37071 ft 499 kts 76°
2026-05-06 04:10 47.70481 67.64904 37076 ft 498 kts 76°
2026-05-06 04:11 47.71967 67.74939 37076 ft 496 kts 76°
2026-05-06 04:11 47.73226 67.84950 37074 ft 497 kts 81°
2026-05-06 04:12 47.74123 67.95145 37071 ft 497 kts 82°
2026-05-06 04:12 47.75015 68.05353 37066 ft 497 kts 81°
2026-05-06 04:13 47.75955 68.15471 37065 ft 497 kts 81°
2026-05-06 04:13 47.76920 68.25646 37061 ft 497 kts 81°
2026-05-06 04:14 47.77881 68.35831 37061 ft 497 kts 81°
2026-05-06 04:14 47.78829 68.46008 37065 ft 497 kts 81°
2026-05-06 04:15 47.79608 68.54458 37067 ft 495 kts 81°
2026-05-06 04:15 47.80684 68.66251 37070 ft 494 kts 81°
2026-05-06 04:16 47.81451 68.74750 37069 ft 494 kts 81°
2026-05-06 04:16 47.81961 68.84889 37071 ft 495 kts 89°
2026-05-06 04:17 47.81867 68.95127 37075 ft 494 kts 91°
2026-05-06 04:17 47.81668 69.05363 37080 ft 494 kts 91°
2026-05-06 04:18 47.81455 69.15574 37081 ft 493 kts 91°
2026-05-06 04:18 47.81245 69.25795 37083 ft 493 kts 91°
2026-05-06 04:19 47.81034 69.35926 37092 ft 493 kts 91°
2026-05-06 04:19 47.80813 69.46118 37089 ft 492 kts 91°
2026-05-06 04:20 47.80584 69.56308 37091 ft 492 kts 91°
2026-05-06 04:20 47.80347 69.66423 37091 ft 492 kts 91°
2026-05-06 04:21 47.80099 69.76615 37094 ft 492 kts 91°
2026-05-06 04:21 47.79841 69.86803 37094 ft 493 kts 91°
2026-05-06 04:22 47.79575 69.97000 37102 ft 493 kts 91°
2026-05-06 04:23 47.79161 70.12215 37100 ft 493 kts 91°
2026-05-06 04:23 47.78872 70.22409 37102 ft 493 kts 91°
2026-05-06 04:24 47.78575 70.32576 37104 ft 492 kts 91°
2026-05-06 04:24 47.78268 70.42745 37108 ft 492 kts 91°
2026-05-06 04:25 47.77953 70.52907 37106 ft 492 kts 91°
2026-05-06 04:25 47.77629 70.63081 37111 ft 492 kts 92°
2026-05-06 04:26 47.77297 70.73245 37113 ft 492 kts 92°
2026-05-06 04:26 47.76953 70.83355 37111 ft 492 kts 92°
2026-05-06 04:27 47.76597 70.93561 37107 ft 492 kts 92°
2026-05-06 04:27 47.76237 71.03650 37108 ft 492 kts 92°
2026-05-06 04:28 47.75867 71.13802 37114 ft 492 kts 92°
2026-05-06 04:28 47.75488 71.23948 37112 ft 491 kts 92°
2026-05-06 04:29 47.75099 71.34096 37110 ft 491 kts 92°
2026-05-06 04:29 47.74702 71.44232 37110 ft 491 kts 92°
2026-05-06 04:30 47.74295 71.54376 37116 ft 491 kts 92°
2026-05-06 04:30 47.73883 71.64449 37121 ft 491 kts 92°
2026-05-06 04:31 47.73459 71.74584 37120 ft 491 kts 92°
2026-05-06 04:31 47.73026 71.84713 37122 ft 491 kts 92°
2026-05-06 04:32 47.72479 71.94824 37118 ft 491 kts 94°
2026-05-06 04:32 47.71863 72.04938 37122 ft 491 kts 94°
2026-05-06 04:33 47.71255 72.14989 37117 ft 491 kts 94°
2026-05-06 04:33 47.70652 72.25071 37119 ft 491 kts 94°
2026-05-06 04:34 47.70044 72.35180 37119 ft 490 kts 95°
2026-05-06 04:34 47.69427 72.45274 37122 ft 490 kts 95°
2026-05-06 04:35 47.68805 72.55298 37116 ft 490 kts 95°
2026-05-06 04:35 47.68169 72.65390 37120 ft 490 kts 95°
2026-05-06 04:36 47.67526 72.75470 37121 ft 490 kts 95°
2026-05-06 04:36 47.66877 72.85489 37121 ft 490 kts 95°
2026-05-06 04:37 47.66213 72.95586 37121 ft 490 kts 95°
2026-05-06 04:37 47.65544 73.05643 37123 ft 490 kts 95°
2026-05-06 04:38 47.64866 73.15701 37124 ft 489 kts 95°
2026-05-06 04:38 47.64179 73.25754 37120 ft 489 kts 95°
2026-05-06 04:39 47.63489 73.35726 37118 ft 489 kts 95°
2026-05-06 04:39 47.62786 73.45750 37123 ft 489 kts 96°
2026-05-06 04:40 47.62074 73.55780 37124 ft 489 kts 96°
2026-05-06 04:40 47.61353 73.65816 37123 ft 489 kts 96°
2026-05-06 04:41 47.60623 73.75836 37121 ft 489 kts 96°
2026-05-06 04:41 47.59884 73.85866 37121 ft 489 kts 96°
2026-05-06 04:42 47.59142 73.95829 37121 ft 489 kts 96°
2026-05-06 04:42 47.58385 74.05861 37121 ft 489 kts 97°
2026-05-06 04:43 47.57620 74.15878 37118 ft 489 kts 97°
2026-05-06 04:43 47.56846 74.25894 37118 ft 489 kts 97°
2026-05-06 04:44 47.56070 74.35832 37120 ft 489 kts 97°
2026-05-06 04:44 47.55281 74.45818 37110 ft 488 kts 97°
2026-05-06 04:45 47.54483 74.55806 37111 ft 488 kts 97°
2026-05-06 04:45 47.53676 74.65784 37108 ft 488 kts 97°
2026-05-06 04:46 47.52861 74.75763 37110 ft 488 kts 97°
2026-05-06 04:46 47.52036 74.85751 37111 ft 488 kts 98°
2026-05-06 04:47 47.51210 74.95646 37110 ft 488 kts 98°
2026-05-06 04:47 47.50370 75.05605 37114 ft 488 kts 98°
2026-05-06 04:48 47.49521 75.15568 37113 ft 488 kts 98°
2026-05-06 04:48 47.48662 75.25540 37117 ft 488 kts 98°
2026-05-06 04:49 47.47801 75.35422 37116 ft 486 kts 98°
2026-05-06 04:49 47.46930 75.45328 37116 ft 486 kts 98°
2026-05-06 04:50 47.46048 75.55256 37116 ft 486 kts 98°
2026-05-06 04:50 47.45159 75.65161 37116 ft 486 kts 98°
2026-05-06 04:51 47.44269 75.74990 37117 ft 486 kts 98°
2026-05-06 04:51 47.43365 75.84874 37117 ft 485 kts 98°
2026-05-06 04:52 47.42451 75.94767 37115 ft 485 kts 98°
2026-05-06 04:52 47.41529 76.04641 37116 ft 485 kts 99°
2026-05-06 04:53 47.40600 76.14513 37114 ft 485 kts 99°
2026-05-06 04:53 47.39663 76.24372 37114 ft 485 kts 99°
2026-05-06 04:54 47.38725 76.34147 37119 ft 483 kts 99°
2026-05-06 04:54 47.37774 76.43971 37120 ft 483 kts 99°
2026-05-06 04:55 47.36813 76.53800 37120 ft 483 kts 99°
2026-05-06 04:55 47.35851 76.63549 37120 ft 483 kts 99°
2026-05-06 04:56 47.34876 76.73347 37117 ft 482 kts 99°
2026-05-06 04:56 47.33893 76.83147 37122 ft 482 kts 99°
2026-05-06 04:57 47.32901 76.92935 37124 ft 482 kts 99°
2026-05-06 04:57 47.31910 77.02643 37124 ft 482 kts 99°
2026-05-06 04:58 47.31037 77.12445 37121 ft 482 kts 96°
2026-05-06 04:58 47.30588 77.22331 37123 ft 483 kts 94°
2026-05-06 04:59 47.30170 77.32209 37120 ft 482 kts 95°
2026-05-06 04:59 47.29677 77.42066 37121 ft 482 kts 95°
2026-05-06 05:00 47.29143 77.51843 37122 ft 481 kts 95°
2026-05-06 05:00 47.28591 77.61677 37119 ft 481 kts 95°
2026-05-06 05:01 47.28032 77.71514 37121 ft 481 kts 95°
2026-05-06 05:01 47.27467 77.81342 37133 ft 481 kts 95°
2026-05-06 05:02 47.26895 77.91154 37118 ft 481 kts 96°
2026-05-06 05:02 47.26318 78.00907 37122 ft 481 kts 95°
2026-05-06 05:03 47.25728 78.10728 37122 ft 481 kts 96°
2026-05-06 05:03 47.25232 78.18892 37125 ft 481 kts 96°
2026-05-06 05:04 47.24627 78.28706 37121 ft 481 kts 96°
2026-05-06 05:04 47.24013 78.38516 37129 ft 481 kts 96°
2026-05-06 05:05 47.23395 78.48275 37137 ft 481 kts 96°
2026-05-06 05:05 47.22765 78.58080 37137 ft 481 kts 96°
2026-05-06 05:06 47.22129 78.67855 37122 ft 480 kts 96°
2026-05-06 05:06 47.21486 78.77610 37142 ft 479 kts 96°
2026-05-06 05:07 47.20832 78.87392 37126 ft 479 kts 96°
2026-05-06 05:07 47.20172 78.97147 37139 ft 479 kts 96°
2026-05-06 05:08 47.19503 79.06908 37132 ft 479 kts 96°
2026-05-06 05:08 47.18831 79.16599 37126 ft 479 kts 96°
2026-05-06 05:09 47.18133 79.26348 37140 ft 479 kts 96°
2026-05-06 05:09 47.17413 79.36085 37126 ft 479 kts 96°
2026-05-06 05:10 47.16685 79.45829 37126 ft 479 kts 96°
2026-05-06 05:10 47.15954 79.55573 37125 ft 479 kts 96°
2026-05-06 05:11 47.15216 79.65305 37125 ft 479 kts 96°
2026-05-06 05:11 47.14474 79.74970 37123 ft 479 kts 96°
2026-05-06 05:12 47.13720 79.84701 37208 ft 479 kts 96°
2026-05-06 05:12 47.12971 79.94425 37230 ft 478 kts 96°
2026-05-06 05:13 47.12227 80.04123 37225 ft 477 kts 96°
2026-05-06 05:13 47.11481 80.13749 37219 ft 477 kts 96°
2026-05-06 05:14 47.10721 80.23423 37221 ft 476 kts 96°
2026-05-06 05:14 47.09953 80.33087 37226 ft 476 kts 96°
2026-05-06 05:15 47.09177 80.42737 37217 ft 476 kts 96°
2026-05-06 05:15 47.08393 80.52389 37223 ft 476 kts 96°
2026-05-06 05:16 47.07605 80.61988 37221 ft 476 kts 96°
2026-05-06 05:16 47.06804 80.71644 37214 ft 476 kts 96°
2026-05-06 05:17 47.05995 80.81297 37218 ft 477 kts 96°
2026-05-06 05:17 47.05178 80.90946 37223 ft 477 kts 96°
2026-05-06 05:18 47.04353 81.00594 37221 ft 476 kts 96°
2026-05-06 05:18 47.03532 81.10158 37215 ft 476 kts 96°
2026-05-06 05:19 47.02689 81.19789 37221 ft 476 kts 96°
2026-05-06 05:19 47.01840 81.29406 37217 ft 476 kts 96°
2026-05-06 05:20 47.00985 81.39012 37213 ft 476 kts 97°
2026-05-06 05:20 47.00120 81.48637 37221 ft 476 kts 97°
2026-05-06 05:21 46.99250 81.58234 37216 ft 476 kts 97°
2026-05-06 05:21 46.98374 81.67805 37222 ft 476 kts 97°
2026-05-06 05:22 46.97485 81.77421 37217 ft 476 kts 97°
2026-05-06 05:22 46.96591 81.87011 37217 ft 475 kts 97°
2026-05-06 05:23 46.95692 81.96594 37220 ft 475 kts 97°
2026-05-06 05:23 46.94311 82.10956 37214 ft 475 kts 97°
2026-05-06 05:24 46.93378 82.20525 37226 ft 475 kts 97°
2026-05-06 05:24 46.92445 82.30037 37227 ft 475 kts 97°
2026-05-06 05:25 46.91499 82.39614 37229 ft 475 kts 97°
2026-05-06 05:25 46.90545 82.49176 37233 ft 475 kts 97°
2026-05-06 05:26 46.89583 82.58750 37221 ft 475 kts 97°
2026-05-06 05:26 46.88612 82.68315 37235 ft 475 kts 97°
2026-05-06 05:27 46.87635 82.77877 37232 ft 476 kts 97°
2026-05-06 05:27 46.86340 82.87357 37228 ft 477 kts 108°
2026-05-06 05:28 46.83473 82.96012 37224 ft 478 kts 120°
2026-05-06 05:28 46.79990 83.04281 37230 ft 479 kts 122°
2026-05-06 05:29 46.76403 83.12483 37220 ft 479 kts 122°
2026-05-06 05:29 46.72830 83.20683 37221 ft 479 kts 121°
2026-05-06 05:30 46.69272 83.28892 37216 ft 479 kts 121°
2026-05-06 05:30 46.65713 83.37102 37221 ft 479 kts 121°
2026-05-06 05:31 46.61954 83.45040 37214 ft 479 kts 126°
2026-05-06 05:31 46.57945 83.52789 37216 ft 479 kts 126°
2026-05-06 05:32 46.53951 83.60543 37212 ft 479 kts 126°
2026-05-06 05:32 46.49995 83.68335 37210 ft 479 kts 125°
2026-05-06 05:33 46.46054 83.76128 37207 ft 479 kts 125°
2026-05-06 05:33 46.42109 83.83913 37210 ft 479 kts 125°
2026-05-06 05:34 46.38157 83.91685 37221 ft 479 kts 125°
2026-05-06 05:34 46.34200 83.99439 37231 ft 478 kts 125°
2026-05-06 05:35 46.30239 84.07182 37219 ft 479 kts 125°
2026-05-06 05:35 46.26292 84.14875 37233 ft 479 kts 125°
2026-05-06 05:36 46.22307 84.22607 37234 ft 479 kts 126°
2026-05-06 05:36 46.18296 84.30316 37235 ft 478 kts 126°
2026-05-06 05:37 46.14300 84.37979 37237 ft 478 kts 126°
2026-05-06 05:37 46.10293 84.45653 37237 ft 478 kts 126°
2026-05-06 05:38 46.06286 84.53310 37234 ft 479 kts 126°
2026-05-06 05:38 46.02299 84.60908 37227 ft 479 kts 126°
2026-05-06 05:39 45.98285 84.68536 37227 ft 478 kts 126°
2026-05-06 05:39 45.94263 84.76158 37227 ft 477 kts 126°
2026-05-06 05:40 45.90242 84.83763 37226 ft 478 kts 126°
2026-05-06 05:40 45.86213 84.91356 37229 ft 478 kts 126°
2026-05-06 05:41 45.82176 84.98945 37220 ft 478 kts 126°
2026-05-06 05:41 45.78165 85.06466 37222 ft 478 kts 126°
2026-05-06 05:42 45.74119 85.14033 37215 ft 478 kts 126°
2026-05-06 05:42 45.70073 85.21579 37213 ft 478 kts 126°
2026-05-06 05:43 45.66029 85.29138 37208 ft 478 kts 126°
2026-05-06 05:43 45.61990 85.36705 37214 ft 478 kts 126°
2026-05-06 05:44 45.57981 85.44195 37210 ft 478 kts 126°
2026-05-06 05:44 45.53938 85.51722 37210 ft 478 kts 126°
2026-05-06 05:45 45.49890 85.59235 37207 ft 478 kts 126°
2026-05-06 05:45 45.45836 85.66737 37210 ft 477 kts 126°
2026-05-06 05:46 45.41778 85.74230 37212 ft 477 kts 126°
2026-05-06 05:46 45.37714 85.81713 37213 ft 477 kts 126°
2026-05-06 05:47 45.33644 85.89187 37213 ft 477 kts 126°
2026-05-06 05:47 45.29599 85.96596 37213 ft 477 kts 126°
2026-05-06 05:48 45.25527 86.04035 37213 ft 477 kts 126°
2026-05-06 05:48 45.21446 86.11472 37213 ft 477 kts 126°
2026-05-06 05:49 45.17366 86.18887 37213 ft 477 kts 126°
2026-05-06 05:49 45.13275 86.26302 37213 ft 478 kts 126°
2026-05-06 05:50 45.09173 86.33718 37221 ft 478 kts 126°
2026-05-06 05:50 45.05071 86.41114 37221 ft 478 kts 126°
2026-05-06 05:51 45.00965 86.48499 37233 ft 478 kts 126°
2026-05-06 05:51 44.96878 86.55830 37228 ft 478 kts 126°
2026-05-06 05:52 44.92763 86.63193 37227 ft 478 kts 126°
2026-05-06 05:52 44.89335 86.69312 37232 ft 477 kts 126°
2026-05-06 05:53 44.85213 86.76654 37234 ft 477 kts 126°
2026-05-06 05:53 44.81085 86.83973 37238 ft 477 kts 127°
2026-05-06 05:54 44.76895 86.91238 37240 ft 478 kts 127°
2026-05-06 05:54 44.72690 86.98478 37246 ft 477 kts 127°
2026-05-06 05:55 44.68500 87.05732 37244 ft 477 kts 127°
2026-05-06 05:55 44.64318 87.12964 37247 ft 477 kts 127°
2026-05-06 05:56 44.60152 87.20154 37247 ft 477 kts 127°
2026-05-06 05:56 44.55959 87.27374 37246 ft 477 kts 127°
2026-05-06 05:57 44.51843 87.34646 37255 ft 476 kts 125°
2026-05-06 05:57 44.47854 87.42042 37255 ft 475 kts 124°
2026-05-06 05:58 44.43862 87.49431 37255 ft 475 kts 125°
2026-05-06 05:58 44.39871 87.56741 37254 ft 476 kts 125°
2026-05-06 05:59 44.35845 87.64065 37253 ft 475 kts 125°
2026-05-06 05:59 44.31825 87.71379 37272 ft 474 kts 124°
2026-05-06 06:00 44.27862 87.78750 37267 ft 473 kts 124°
2026-05-06 06:00 44.23926 87.86101 37270 ft 473 kts 124°
2026-05-06 06:01 44.20437 87.93826 37279 ft 468 kts 111°
2026-05-06 06:01 44.18777 88.02480 37288 ft 460 kts 92°
2026-05-06 06:02 44.19211 88.11247 37293 ft 456 kts 78°
2026-05-06 06:02 44.20468 88.19914 37292 ft 456 kts 76°
2026-05-06 06:03 44.21819 88.28570 37271 ft 456 kts 76°
2026-05-06 06:03 44.23134 88.37230 37275 ft 456 kts 76°
2026-05-06 06:04 44.24415 88.45910 37277 ft 456 kts 76°
2026-05-06 06:04 44.25674 88.54550 37273 ft 456 kts 76°
2026-05-06 06:05 44.26935 88.63251 37265 ft 456 kts 76°
2026-05-06 06:05 44.28187 88.71938 37248 ft 457 kts 76°
2026-05-06 06:06 44.29428 88.80581 37259 ft 457 kts 76°
2026-05-06 06:06 44.30668 88.89273 37249 ft 457 kts 76°
2026-05-06 06:07 44.31902 88.97976 37241 ft 456 kts 76°
2026-05-06 06:07 44.33129 89.06677 37241 ft 456 kts 76°
2026-05-06 06:08 44.34351 89.15391 37241 ft 456 kts 77°
2026-05-06 06:08 44.35566 89.24103 37243 ft 456 kts 77°
2026-05-06 06:09 44.36774 89.32819 37233 ft 457 kts 77°
2026-05-06 06:09 44.37967 89.41482 37230 ft 457 kts 77°
2026-05-06 06:10 44.39164 89.50221 37229 ft 457 kts 77°
2026-05-06 06:10 44.40352 89.58949 37227 ft 457 kts 77°
2026-05-06 06:11 44.41151 89.67781 37227 ft 460 kts 88°
2026-05-06 06:11 44.40190 89.76659 37224 ft 465 kts 102°
2026-05-06 06:12 44.38383 89.85367 37225 ft 467 kts 104°
2026-05-06 06:12 44.36457 89.93983 37224 ft 467 kts 104°
2026-05-06 06:13 44.34527 90.02664 37225 ft 467 kts 104°
2026-05-06 06:13 44.32616 90.11345 37228 ft 467 kts 104°
2026-05-06 06:14 44.30720 90.19970 37225 ft 467 kts 104°
2026-05-06 06:14 44.28806 90.28645 37223 ft 467 kts 104°
2026-05-06 06:15 44.26886 90.37306 37231 ft 467 kts 104°
2026-05-06 06:15 44.24956 90.45974 37233 ft 468 kts 105°
2026-05-06 06:16 44.23029 90.54595 37233 ft 468 kts 105°
2026-05-06 06:16 44.21085 90.63258 37236 ft 468 kts 105°
2026-05-06 06:17 44.19135 90.71908 37233 ft 467 kts 105°
2026-05-06 06:17 44.17178 90.80555 37243 ft 468 kts 105°
2026-05-06 06:18 44.15220 90.89176 37239 ft 468 kts 105°
2026-05-06 06:18 44.13247 90.97828 37245 ft 468 kts 105°
2026-05-06 06:19 44.11272 91.06466 37238 ft 468 kts 105°
2026-05-06 06:19 44.09300 91.15057 37256 ft 468 kts 106°
2026-05-06 06:20 44.07306 91.23698 37249 ft 469 kts 106°
2026-05-06 06:20 44.05303 91.32343 37254 ft 470 kts 106°
2026-05-06 06:21 44.03293 91.40993 37257 ft 470 kts 106°
2026-05-06 06:21 44.01276 91.49629 37256 ft 469 kts 106°
2026-05-06 06:22 43.99245 91.58189 37260 ft 469 kts 107°
2026-05-06 06:22 43.97193 91.66802 37261 ft 470 kts 107°
2026-05-06 06:23 43.95135 91.75429 37262 ft 470 kts 107°
2026-05-06 06:23 43.93074 91.84047 37267 ft 470 kts 107°
2026-05-06 06:24 43.91009 91.92647 37273 ft 470 kts 107°
2026-05-06 06:24 43.88945 92.01211 37271 ft 472 kts 107°
2026-05-06 06:25 43.86855 92.09843 37268 ft 472 kts 107°
2026-05-06 06:26 43.83710 92.22771 37269 ft 472 kts 107°
2026-05-06 06:26 43.81602 92.31404 37274 ft 472 kts 107°
2026-05-06 06:27 43.79498 92.39986 37272 ft 474 kts 107°
2026-05-06 06:27 43.77365 92.48653 37267 ft 475 kts 107°
2026-05-06 06:28 43.75223 92.57320 37267 ft 476 kts 107°
2026-05-06 06:28 43.73091 92.65916 37268 ft 475 kts 108°
2026-05-06 06:29 43.70935 92.74577 37268 ft 477 kts 108°
2026-05-06 06:29 43.68763 92.83267 37273 ft 478 kts 108°
2026-05-06 06:30 43.66586 92.91949 37277 ft 478 kts 108°
2026-05-06 06:30 43.64404 93.00628 37279 ft 478 kts 108°
2026-05-06 06:31 43.62321 93.09285 37287 ft 479 kts 107°
2026-05-06 06:31 43.60253 93.18024 37284 ft 480 kts 107°
2026-05-06 06:32 43.58164 93.26775 37283 ft 480 kts 107°
2026-05-06 06:32 43.56054 93.35535 37289 ft 481 kts 108°
2026-05-06 06:33 43.53933 93.44285 37284 ft 481 kts 108°
2026-05-06 06:33 43.51816 93.52984 37287 ft 481 kts 108°
2026-05-06 06:34 43.49680 93.61731 37286 ft 481 kts 108°
2026-05-06 06:34 43.47539 93.70469 37287 ft 481 kts 108°
2026-05-06 06:35 43.45402 93.79155 37285 ft 481 kts 108°
2026-05-06 06:35 43.43243 93.87898 37285 ft 483 kts 108°
2026-05-06 06:36 43.41071 93.96660 37294 ft 484 kts 108°
2026-05-06 06:36 43.38905 94.05361 37294 ft 484 kts 108°
2026-05-06 06:37 43.36720 94.14105 37303 ft 484 kts 108°
2026-05-06 06:37 43.34530 94.22846 37301 ft 485 kts 109°
2026-05-06 06:38 43.32317 94.31643 37311 ft 488 kts 109°
2026-05-06 06:38 43.30090 94.40458 37311 ft 488 kts 109°
2026-05-06 06:39 43.27852 94.49281 37305 ft 488 kts 109°
2026-05-06 06:39 43.25613 94.58079 37309 ft 488 kts 109°
2026-05-06 06:40 43.23376 94.66839 37300 ft 490 kts 109°
2026-05-06 06:40 43.21116 94.75652 37281 ft 490 kts 109°
2026-05-06 06:41 43.18850 94.84456 37278 ft 489 kts 109°
2026-05-06 06:41 43.16578 94.93251 37259 ft 489 kts 109°
2026-05-06 06:42 43.14224 95.02001 37264 ft 491 kts 115°
2026-05-06 06:42 43.10528 95.09757 37246 ft 489 kts 135°
2026-05-06 06:43 43.05283 95.15616 37244 ft 487 kts 147°
2026-05-06 06:43 42.99678 95.20834 37236 ft 487 kts 148°
2026-05-06 06:44 42.94986 95.25106 37234 ft 487 kts 148°
2026-05-06 06:44 42.89358 95.30268 37229 ft 487 kts 148°
2026-05-06 06:45 42.83736 95.35461 37220 ft 488 kts 148°
2026-05-06 06:45 42.78108 95.40664 37220 ft 489 kts 148°
2026-05-06 06:46 42.72470 95.45864 37216 ft 489 kts 148°
2026-05-06 06:46 42.66823 95.51058 37213 ft 489 kts 149°
2026-05-06 06:47 42.61222 95.56198 37213 ft 489 kts 149°
2026-05-06 06:47 42.55583 95.61362 37208 ft 489 kts 149°
2026-05-06 06:48 42.49945 95.66514 37209 ft 489 kts 149°
2026-05-06 06:48 42.44479 95.72025 37221 ft 493 kts 139°
2026-05-06 06:48 42.42182 95.75498 37214 ft 498 kts 128°
2026-05-06 06:49 42.40361 95.79496 37216 ft 501 kts 117°
2026-05-06 06:49 42.39117 95.83907 37216 ft 504 kts 105°
2026-05-06 06:49 42.38507 95.88564 37219 ft 504 kts 95°
2026-05-06 06:50 42.38128 95.98059 37217 ft 506 kts 91°
2026-05-06 06:50 42.37943 96.07527 37219 ft 507 kts 91°
2026-05-06 06:51 42.37725 96.17088 37224 ft 509 kts 92°
2026-05-06 06:51 42.37457 96.26657 37227 ft 509 kts 92°
2026-05-06 06:52 42.37164 96.36233 37224 ft 509 kts 92°
2026-05-06 06:52 42.36863 96.45812 37227 ft 509 kts 92°
2026-05-06 06:53 42.36557 96.55346 37224 ft 511 kts 92°
2026-05-06 06:53 42.36241 96.64952 37225 ft 511 kts 92°
2026-05-06 06:54 42.35918 96.74562 37222 ft 511 kts 92°
2026-05-06 06:54 42.35586 96.84177 37224 ft 511 kts 92°
2026-05-06 06:55 42.35247 96.93787 37220 ft 513 kts 92°
2026-05-06 06:55 42.34898 97.03420 37215 ft 513 kts 93°
2026-05-06 06:56 42.34544 97.12990 37214 ft 513 kts 93°
2026-05-06 06:56 42.34179 97.22628 37210 ft 513 kts 93°
2026-05-06 06:57 42.33806 97.32272 37210 ft 513 kts 93°
2026-05-06 06:57 42.33425 97.41892 37210 ft 513 kts 93°
2026-05-06 06:58 42.33036 97.51533 37207 ft 513 kts 93°
2026-05-06 06:58 42.32642 97.61096 37202 ft 513 kts 93°
2026-05-06 06:59 42.32236 97.70747 37202 ft 515 kts 93°
2026-05-06 06:59 42.31821 97.80419 37200 ft 515 kts 93°
2026-05-06 07:00 42.31398 97.90074 37200 ft 515 kts 93°
2026-05-06 07:00 42.30967 97.99742 37207 ft 515 kts 93°
2026-05-06 07:01 42.30527 98.09433 37199 ft 517 kts 94°
2026-05-06 07:01 42.30082 98.19053 37199 ft 517 kts 94°
2026-05-06 07:02 42.29625 98.28747 37199 ft 517 kts 94°
2026-05-06 07:02 42.29154 98.38428 37200 ft 517 kts 94°
2026-05-06 07:03 42.28651 98.48154 37199 ft 519 kts 94°
2026-05-06 07:03 42.28137 98.57892 37201 ft 520 kts 94°
2026-05-06 07:04 42.27619 98.67628 37199 ft 520 kts 94°
2026-05-06 07:04 42.27094 98.77374 37200 ft 520 kts 94°
2026-05-06 07:05 42.26563 98.87079 37201 ft 522 kts 94°
2026-05-06 07:05 42.26021 98.96846 37194 ft 521 kts 94°
2026-05-06 07:06 42.25469 99.06615 37196 ft 521 kts 94°
2026-05-06 07:06 42.24909 99.16381 37195 ft 522 kts 94°
2026-05-06 07:07 42.24341 99.26157 37184 ft 522 kts 94°
2026-05-06 07:07 42.23764 99.35929 37185 ft 522 kts 94°
2026-05-06 07:08 42.23184 99.45626 37185 ft 522 kts 94°
2026-05-06 07:08 42.22590 99.55409 37176 ft 524 kts 94°
2026-05-06 07:09 42.21985 99.65231 37194 ft 524 kts 94°
2026-05-06 07:09 42.21372 99.75051 37185 ft 524 kts 94°
2026-05-06 07:10 42.20751 99.84855 37183 ft 524 kts 94°
2026-05-06 07:10 42.20125 99.94599 37182 ft 526 kts 95°
2026-05-06 07:11 42.19486 100.04436 37194 ft 526 kts 95°
2026-05-06 07:11 42.18837 100.14281 37182 ft 526 kts 95°
2026-05-06 07:12 42.18180 100.24108 37184 ft 527 kts 95°
2026-05-06 07:12 42.17515 100.33952 37193 ft 528 kts 95°
2026-05-06 07:13 42.16839 100.43814 37196 ft 528 kts 95°
2026-05-06 07:13 42.16155 100.53674 37195 ft 528 kts 95°
2026-05-06 07:14 42.15466 100.63477 37191 ft 529 kts 95°
2026-05-06 07:14 42.14763 100.73355 37196 ft 530 kts 95°
2026-05-06 07:15 42.14051 100.83249 37194 ft 530 kts 95°
2026-05-06 07:15 42.13331 100.93128 37197 ft 530 kts 95°
2026-05-06 07:16 42.12489 101.02997 37202 ft 530 kts 102°
2026-05-06 07:16 42.10429 101.12436 37195 ft 528 kts 110°
2026-05-06 07:17 42.08004 101.21783 37201 ft 528 kts 111°
2026-05-06 07:17 42.05522 101.31083 37212 ft 528 kts 111°
2026-05-06 07:18 42.03043 101.40401 37200 ft 530 kts 111°
2026-05-06 07:18 42.00563 101.49751 37202 ft 530 kts 111°
2026-05-06 07:19 41.98082 101.59094 37210 ft 530 kts 111°
2026-05-06 07:19 41.95593 101.68431 37197 ft 530 kts 111°
2026-05-06 07:20 41.93108 101.77714 37216 ft 531 kts 111°
2026-05-06 07:20 41.90598 101.87050 37208 ft 531 kts 111°
2026-05-06 07:21 41.88079 101.96386 37215 ft 531 kts 111°
2026-05-06 07:21 41.85555 102.05708 37212 ft 532 kts 112°
2026-05-06 07:22 41.83016 102.15044 37208 ft 533 kts 112°
2026-05-06 07:22 41.80487 102.24315 37205 ft 533 kts 112°
2026-05-06 07:23 41.77930 102.33648 37209 ft 533 kts 112°
2026-05-06 07:23 41.75369 102.42964 37213 ft 533 kts 112°
2026-05-06 07:24 41.72793 102.52298 37216 ft 533 kts 112°
2026-05-06 07:24 41.70230 102.61554 37215 ft 533 kts 112°
2026-05-06 07:25 41.67644 102.70858 37215 ft 533 kts 112°
2026-05-06 07:25 41.65058 102.80149 37212 ft 533 kts 112°
2026-05-06 07:26 41.62457 102.89432 37221 ft 534 kts 112°
2026-05-06 07:26 41.59843 102.98726 37223 ft 534 kts 112°
2026-05-06 07:27 41.57231 103.08007 37205 ft 534 kts 113°
2026-05-06 07:27 41.54616 103.17230 37225 ft 534 kts 113°
2026-05-06 07:28 41.51977 103.26504 37224 ft 534 kts 113°
2026-05-06 07:28 41.48007 103.40404 37222 ft 534 kts 113°
2026-05-06 07:29 41.45372 103.49593 37227 ft 534 kts 113°
2026-05-06 07:29 41.42709 103.58843 37235 ft 534 kts 113°
2026-05-06 07:30 41.40038 103.68089 37232 ft 535 kts 113°
2026-05-06 07:30 41.37811 103.75772 37224 ft 535 kts 113°
2026-05-06 07:31 41.34686 103.86518 37228 ft 535 kts 114°
2026-05-06 07:31 41.31990 103.95751 37233 ft 536 kts 114°
2026-05-06 07:32 41.29723 104.03489 37232 ft 536 kts 114°
2026-05-06 07:32 41.27011 104.12715 37233 ft 536 kts 114°
2026-05-06 07:33 41.24308 104.21878 37240 ft 536 kts 114°
2026-05-06 07:33 41.21578 104.31103 37237 ft 536 kts 114°
2026-05-06 07:34 41.18843 104.40310 37238 ft 536 kts 114°
2026-05-06 07:34 41.16096 104.49525 37237 ft 536 kts 114°
2026-05-06 07:35 41.13343 104.58730 37240 ft 536 kts 114°
2026-05-06 07:35 41.10601 104.67864 37244 ft 536 kts 115°
2026-05-06 07:36 41.07749 104.76993 37244 ft 535 kts 117°
2026-05-06 07:36 41.04672 104.85964 37246 ft 534 kts 118°
2026-05-06 07:37 41.01574 104.94928 37242 ft 534 kts 118°
2026-05-06 07:37 40.98505 105.03903 37243 ft 535 kts 117°
2026-05-06 07:38 40.95467 105.12825 37246 ft 534 kts 117°
2026-05-06 07:38 40.92407 105.21793 37244 ft 535 kts 118°
2026-05-06 07:39 40.89341 105.30748 37244 ft 534 kts 118°
2026-05-06 07:39 40.86266 105.39695 37241 ft 535 kts 118°
2026-05-06 07:40 40.83178 105.48649 37241 ft 535 kts 118°
2026-05-06 07:40 40.80109 105.57525 37240 ft 535 kts 118°
2026-05-06 07:41 40.77010 105.66455 37234 ft 535 kts 118°
2026-05-06 07:41 40.73909 105.75366 37237 ft 534 kts 118°
2026-05-06 07:42 40.70817 105.84219 37235 ft 533 kts 118°
2026-05-06 07:42 40.67703 105.93110 37233 ft 533 kts 118°
2026-05-06 07:43 40.64585 106.01984 37210 ft 533 kts 119°
2026-05-06 07:43 40.61481 106.10791 37219 ft 532 kts 119°
2026-05-06 07:44 40.58360 106.19621 37218 ft 532 kts 119°
2026-05-06 07:44 40.55227 106.28452 37208 ft 532 kts 119°
2026-05-06 07:45 40.52085 106.37274 37200 ft 532 kts 119°
2026-05-06 07:45 40.48947 106.46078 37191 ft 531 kts 119°
2026-05-06 07:46 40.45819 106.54821 37180 ft 531 kts 120°
2026-05-06 07:46 40.42667 106.63604 37175 ft 531 kts 120°
2026-05-06 07:47 40.39506 106.72381 37180 ft 531 kts 120°
2026-05-06 07:47 40.36355 106.81105 37178 ft 533 kts 120°
2026-05-06 07:48 40.33186 106.89886 37175 ft 534 kts 118°
2026-05-06 07:48 40.31924 106.94474 37179 ft 539 kts 107°
2026-05-06 07:48 40.31269 106.99321 37179 ft 541 kts 95°
2026-05-06 07:49 40.31385 107.09199 37184 ft 544 kts 86°
2026-05-06 07:49 40.31922 107.19091 37192 ft 545 kts 85°
2026-05-06 07:50 40.32490 107.29001 37184 ft 545 kts 86°
2026-05-06 07:50 40.33010 107.38934 37178 ft 545 kts 86°
2026-05-06 07:51 40.33495 107.48854 37183 ft 545 kts 87°
2026-05-06 07:51 40.33963 107.58717 37185 ft 545 kts 87°
2026-05-06 07:52 40.34426 107.68645 37185 ft 545 kts 87°
2026-05-06 07:52 40.34883 107.78579 37176 ft 545 kts 87°
2026-05-06 07:53 40.35332 107.88505 37173 ft 545 kts 87°
2026-05-06 07:53 40.35771 107.98431 37214 ft 545 kts 88°
2026-05-06 07:54 40.36195 108.08301 37171 ft 546 kts 88°
2026-05-06 07:54 40.36584 108.18250 37173 ft 546 kts 88°
2026-05-06 07:55 40.36964 108.28193 37172 ft 546 kts 88°
2026-05-06 07:55 40.37342 108.38148 37172 ft 546 kts 88°
2026-05-06 07:56 40.37713 108.48100 37170 ft 546 kts 88°
2026-05-06 07:56 40.38076 108.58049 37164 ft 546 kts 88°
2026-05-06 07:57 40.38429 108.68000 37166 ft 546 kts 88°
2026-05-06 07:57 40.38774 108.77937 37152 ft 546 kts 89°
2026-05-06 07:58 40.39111 108.87864 37158 ft 546 kts 89°
2026-05-06 07:58 40.39440 108.97817 37158 ft 546 kts 89°
2026-05-06 07:59 40.39760 109.07780 37153 ft 546 kts 89°
2026-05-06 07:59 40.40072 109.17749 37146 ft 547 kts 89°
2026-05-06 08:00 40.40375 109.27733 37148 ft 548 kts 89°
2026-05-06 08:00 40.40669 109.37688 37148 ft 548 kts 90°
2026-05-06 08:01 40.40956 109.47685 37127 ft 547 kts 90°
2026-05-06 08:01 40.41234 109.57668 37134 ft 548 kts 90°
2026-05-06 08:02 40.41502 109.67610 37132 ft 548 kts 90°
2026-05-06 08:02 40.41763 109.77605 37132 ft 548 kts 90°
2026-05-06 08:03 40.42017 109.87618 37123 ft 549 kts 90°
2026-05-06 08:03 40.42261 109.97639 37125 ft 549 kts 91°
2026-05-06 08:04 40.42332 110.07653 37140 ft 548 kts 93°
2026-05-06 08:04 40.42222 110.17595 37124 ft 549 kts 94°
2026-05-06 08:05 40.42119 110.27641 37129 ft 551 kts 94°
2026-05-06 08:05 40.42035 110.37702 37126 ft 551 kts 94°
2026-05-06 08:06 40.41957 110.47754 37113 ft 551 kts 94°
2026-05-06 08:06 40.41872 110.57827 37129 ft 552 kts 94°
2026-05-06 08:07 40.41778 110.67843 37126 ft 552 kts 94°
2026-05-06 08:07 40.41675 110.77919 37123 ft 552 kts 94°
2026-05-06 08:08 40.41562 110.87994 37114 ft 552 kts 94°
2026-05-06 08:08 40.41441 110.98063 37114 ft 552 kts 94°
2026-05-06 08:09 40.41311 111.08140 37122 ft 552 kts 94°
2026-05-06 08:09 40.41173 111.18207 37108 ft 552 kts 94°
2026-05-06 08:10 40.41026 111.28234 37117 ft 553 kts 94°
2026-05-06 08:10 40.40873 111.38341 37115 ft 554 kts 95°
2026-05-06 08:11 40.40704 111.48453 37126 ft 554 kts 95°
2026-05-06 08:11 40.40525 111.58549 37129 ft 554 kts 95°
2026-05-06 08:12 40.40339 111.68645 37132 ft 554 kts 95°
2026-05-06 08:12 40.40145 111.78757 37132 ft 554 kts 95°
2026-05-06 08:13 40.39937 111.88868 37132 ft 554 kts 95°
2026-05-06 08:13 40.39334 111.93739 37148 ft 543 kts 113°
2026-05-06 08:13 40.37881 111.98218 37137 ft 525 kts 129°
2026-05-06 08:14 40.35722 112.01948 37136 ft 504 kts 145°
2026-05-06 08:14 40.33032 112.04717 37131 ft 481 kts 161°
2026-05-06 08:14 40.30032 112.06359 37137 ft 457 kts 177°
2026-05-06 08:14 40.26967 112.06809 37136 ft 432 kts 193°
2026-05-06 08:15 40.24100 112.06096 37104 ft 410 kts 210°
2026-05-06 08:15 40.21633 112.04370 37134 ft 396 kts 223°
2026-05-06 08:15 40.16825 112.00666 37134 ft 414 kts 208°
2026-05-06 08:16 40.13980 111.99765 37136 ft 429 kts 196°
2026-05-06 08:16 40.10980 111.99723 37127 ft 447 kts 184°
2026-05-06 08:16 40.07892 112.00627 37127 ft 466 kts 170°
2026-05-06 08:16 40.04903 112.02492 37134 ft 482 kts 160°
2026-05-06 08:17 39.99073 112.06894 37119 ft 477 kts 166°
2026-05-06 08:17 39.96009 112.08405 37125 ft 464 kts 175°
2026-05-06 08:17 39.92904 112.09450 37123 ft 459 kts 177°
2026-05-06 08:18 39.86657 112.11120 37124 ft 456 kts 180°
2026-05-06 08:18 39.80423 112.12585 37105 ft 455 kts 180°
2026-05-06 08:19 39.74219 112.14045 37124 ft 455 kts 180°
2026-05-06 08:19 39.67988 112.15542 37123 ft 454 kts 180°
2026-05-06 08:20 39.62816 112.16791 37116 ft 454 kts 180°
2026-05-06 08:20 39.55580 112.18526 37126 ft 455 kts 180°
2026-05-06 08:21 39.50360 112.19790 37108 ft 454 kts 180°
2026-05-06 08:21 39.44153 112.21306 37119 ft 454 kts 180°
2026-05-06 08:22 39.37968 112.22837 37115 ft 454 kts 180°
2026-05-06 08:22 39.31748 112.24357 37117 ft 455 kts 180°
2026-05-06 08:23 39.25528 112.25884 37112 ft 455 kts 179°
2026-05-06 08:23 39.19308 112.27417 37111 ft 455 kts 179°
2026-05-06 08:24 39.13107 112.28931 37104 ft 456 kts 179°
2026-05-06 08:24 39.06857 112.30455 37116 ft 457 kts 179°
2026-05-06 08:25 39.00600 112.31980 37112 ft 457 kts 179°
2026-05-06 08:25 38.94345 112.33504 37101 ft 457 kts 180°
2026-05-06 08:26 38.88133 112.35018 37109 ft 457 kts 180°
2026-05-06 08:26 38.81888 112.36533 37101 ft 457 kts 180°
2026-05-06 08:27 38.75627 112.38041 37101 ft 458 kts 180°
2026-05-06 08:27 38.69344 112.39551 37065 ft 460 kts 179°
2026-05-06 08:28 38.63059 112.41063 37087 ft 458 kts 179°
2026-05-06 08:28 38.56811 112.42571 37082 ft 456 kts 179°
2026-05-06 08:29 38.50583 112.44056 37086 ft 455 kts 180°
2026-05-06 08:29 38.44375 112.45539 37082 ft 457 kts 180°
2026-05-06 08:30 38.38149 112.47027 37074 ft 453 kts 180°
2026-05-06 08:30 38.31962 112.48484 37069 ft 451 kts 180°
2026-05-06 08:31 38.25776 112.49936 37068 ft 451 kts 180°
2026-05-06 08:31 38.19637 112.51379 37061 ft 451 kts 180°
2026-05-06 08:32 38.13471 112.52827 37062 ft 450 kts 180°
2026-05-06 08:32 38.07292 112.54269 37059 ft 451 kts 180°
2026-05-06 08:33 38.01114 112.55724 37021 ft 451 kts 180°
2026-05-06 08:33 37.94947 112.57171 37041 ft 450 kts 180°
2026-05-06 08:34 37.85706 112.59332 37039 ft 450 kts 180°
2026-05-06 08:35 37.79585 112.60787 37037 ft 450 kts 180°
2026-05-06 08:35 37.73422 112.62269 37035 ft 452 kts 179°
2026-05-06 08:36 37.67273 112.64233 37045 ft 458 kts 175°
2026-05-06 08:36 37.61126 112.66423 37026 ft 458 kts 175°
2026-05-06 08:37 37.54988 112.68558 36997 ft 457 kts 176°
2026-05-06 08:37 37.48830 112.70632 37014 ft 458 kts 176°
2026-05-06 08:38 37.42664 112.72683 37010 ft 458 kts 176°
2026-05-06 08:38 37.36499 112.74731 37003 ft 458 kts 176°
2026-05-06 08:39 37.30330 112.76781 36982 ft 458 kts 176°
2026-05-06 08:39 37.24144 112.78830 37002 ft 460 kts 176°
2026-05-06 08:40 37.17973 112.80874 37002 ft 461 kts 176°
2026-05-06 08:40 37.11765 112.82926 37003 ft 461 kts 176°
2026-05-06 08:41 37.05546 112.84980 37001 ft 461 kts 175°
2026-05-06 08:41 36.99326 112.87040 37008 ft 463 kts 175°
2026-05-06 08:42 36.93130 112.89083 37003 ft 463 kts 175°
2026-05-06 08:42 36.86884 112.91136 37010 ft 463 kts 175°
2026-05-06 08:43 36.80646 112.93190 36997 ft 464 kts 175°
2026-05-06 08:43 36.74379 112.95241 37002 ft 466 kts 175°
2026-05-06 08:44 36.68102 112.97297 37008 ft 467 kts 175°
2026-05-06 08:44 36.61854 112.99344 37020 ft 467 kts 175°
2026-05-06 08:45 36.55571 113.01401 37015 ft 467 kts 175°
2026-05-06 08:45 36.49288 113.03452 37009 ft 467 kts 175°
2026-05-06 08:46 36.42999 113.05499 37015 ft 466 kts 175°
2026-05-06 08:46 36.36724 113.07538 37022 ft 466 kts 175°
2026-05-06 08:47 36.30438 113.09576 37008 ft 467 kts 175°
2026-05-06 08:47 36.24143 113.11691 37006 ft 472 kts 170°
2026-05-06 08:48 36.17947 113.14352 37012 ft 475 kts 169°
2026-05-06 08:48 36.11730 113.17150 37005 ft 476 kts 169°
2026-05-06 08:49 36.05504 113.19967 37005 ft 476 kts 169°
2026-05-06 08:49 35.99282 113.22765 37001 ft 476 kts 169°
2026-05-06 08:50 35.93058 113.25549 36998 ft 476 kts 169°
2026-05-06 08:50 35.86836 113.28327 36998 ft 475 kts 169°
2026-05-06 08:51 35.80613 113.31111 36985 ft 476 kts 169°
2026-05-06 08:51 35.74386 113.33893 36977 ft 476 kts 169°
2026-05-06 08:52 35.68146 113.36676 36961 ft 476 kts 169°
2026-05-06 08:52 35.61909 113.39453 36939 ft 476 kts 169°
2026-05-06 08:53 35.55724 113.42212 36939 ft 475 kts 168°
2026-05-06 08:53 35.49507 113.44955 36928 ft 474 kts 168°
2026-05-06 08:54 35.43293 113.47706 36896 ft 473 kts 168°
2026-05-06 08:54 35.37120 113.50460 36879 ft 472 kts 168°
2026-05-06 08:55 35.30931 113.53212 36863 ft 472 kts 167°
2026-05-06 08:55 35.24790 113.55939 36869 ft 472 kts 167°
2026-05-06 08:56 35.18614 113.58677 36858 ft 472 kts 167°
2026-05-06 08:56 35.12430 113.61414 36852 ft 472 kts 167°
2026-05-06 08:57 35.06252 113.64144 36838 ft 472 kts 167°
2026-05-06 08:57 35.00064 113.66874 36849 ft 472 kts 167°
2026-05-06 08:58 34.93875 113.69600 36849 ft 472 kts 167°
2026-05-06 08:58 34.87694 113.72319 36855 ft 472 kts 167°
2026-05-06 08:59 34.81511 113.74807 36837 ft 468 kts 172°
2026-05-06 08:59 34.75195 113.76790 36852 ft 469 kts 172°
2026-05-06 09:00 34.68856 113.78752 36849 ft 470 kts 172°
2026-05-06 09:00 34.62527 113.80796 36847 ft 470 kts 171°
2026-05-06 09:01 34.56199 113.82882 36838 ft 471 kts 171°
2026-05-06 09:01 34.49875 113.84973 36845 ft 470 kts 171°
2026-05-06 09:02 34.43563 113.86986 36858 ft 469 kts 172°
2026-05-06 09:02 34.37280 113.88950 36855 ft 469 kts 172°
2026-05-06 09:03 34.30959 113.90932 36823 ft 469 kts 171°
2026-05-06 09:03 34.24609 113.92927 36857 ft 474 kts 171°
2026-05-06 09:04 34.18209 113.94941 36857 ft 475 kts 171°
2026-05-06 09:04 34.11816 113.96953 36857 ft 474 kts 171°
2026-05-06 09:05 34.05475 113.98944 36855 ft 474 kts 171°
2026-05-06 09:05 33.99085 114.00945 36856 ft 474 kts 171°
2026-05-06 09:06 33.92695 114.02943 36860 ft 474 kts 171°
2026-05-06 09:06 33.86308 114.04937 36859 ft 474 kts 171°
2026-05-06 09:07 33.79925 114.06927 36829 ft 474 kts 171°
2026-05-06 09:07 33.74602 114.08583 36857 ft 477 kts 171°
2026-05-06 09:08 33.67095 114.10915 36861 ft 478 kts 171°
2026-05-06 09:08 33.61734 114.12580 36860 ft 478 kts 171°
2026-05-06 09:09 33.55290 114.14579 36863 ft 478 kts 171°
2026-05-06 09:09 33.48844 114.16574 36857 ft 478 kts 171°
2026-05-06 09:10 33.42506 114.19108 36864 ft 486 kts 158°
2026-05-06 09:10 33.36981 114.23920 36869 ft 499 kts 137°
2026-05-06 09:10 33.34853 114.27162 36867 ft 505 kts 125°
2026-05-06 09:11 33.33225 114.30907 36866 ft 509 kts 115°
2026-05-06 09:11 33.30635 114.38811 36856 ft 512 kts 112°
2026-05-06 09:12 33.28206 114.46835 36874 ft 512 kts 112°
2026-05-06 09:12 33.25777 114.54835 36871 ft 512 kts 112°
2026-05-06 09:13 33.23311 114.62823 36878 ft 512 kts 112°
2026-05-06 09:13 33.20822 114.70803 36882 ft 512 kts 112°
2026-05-06 09:14 33.18326 114.78771 36879 ft 512 kts 113°
2026-05-06 09:14 33.15830 114.86670 36877 ft 512 kts 113°
2026-05-06 09:15 33.13309 114.94631 36886 ft 512 kts 113°
2026-05-06 09:15 33.10789 115.02579 36883 ft 512 kts 113°
2026-05-06 09:16 33.08268 115.10518 36884 ft 512 kts 113°
2026-05-06 09:16 33.05740 115.18455 36888 ft 512 kts 113°
2026-05-06 09:17 33.03258 115.26232 36889 ft 512 kts 113°
2026-05-06 09:17 33.00719 115.34163 36881 ft 512 kts 113°
2026-05-06 09:18 32.98168 115.42113 36894 ft 513 kts 113°
2026-05-06 09:18 32.95634 115.50051 36893 ft 513 kts 113°
2026-05-06 09:19 32.93143 115.58016 36895 ft 513 kts 112°
2026-05-06 09:19 32.90667 115.65921 36898 ft 513 kts 112°
2026-05-06 09:20 32.87744 115.73631 36901 ft 508 kts 126°
2026-05-06 09:20 32.83504 115.80309 36902 ft 505 kts 133°
2026-05-06 09:21 32.79026 115.86665 36904 ft 504 kts 134°
2026-05-06 09:21 32.74478 115.93018 36903 ft 504 kts 134°
2026-05-06 09:22 32.69945 115.99383 36906 ft 504 kts 134°
2026-05-06 09:22 32.65431 116.05745 36910 ft 504 kts 134°
2026-05-06 09:23 32.60909 116.12118 36908 ft 504 kts 134°
2026-05-06 09:23 32.56382 116.18487 36915 ft 504 kts 134°
2026-05-06 09:24 32.51935 116.24883 36917 ft 505 kts 133°
2026-05-06 09:24 32.47507 116.31365 36920 ft 506 kts 132°
2026-05-06 09:25 32.43069 116.37841 36917 ft 506 kts 133°
2026-05-06 09:25 32.38645 116.44260 36921 ft 506 kts 133°
2026-05-06 09:26 32.34187 116.50707 36925 ft 506 kts 133°
2026-05-06 09:26 32.29722 116.57152 36911 ft 506 kts 133°
2026-05-06 09:27 32.25250 116.63593 36928 ft 507 kts 133°
2026-05-06 09:27 32.20767 116.70043 36926 ft 508 kts 133°
2026-05-06 09:28 32.16292 116.76436 36929 ft 507 kts 134°
2026-05-06 09:28 32.11726 116.82777 36929 ft 507 kts 134°
2026-05-06 09:29 32.07138 116.89109 36926 ft 507 kts 134°
2026-05-06 09:29 32.02561 116.95440 36929 ft 507 kts 134°
2026-05-06 09:30 31.97982 117.01781 36929 ft 507 kts 134°
2026-05-06 09:30 31.93419 117.08116 36930 ft 507 kts 134°
2026-05-06 09:31 31.88877 117.14420 36935 ft 508 kts 134°
2026-05-06 09:31 31.84304 117.20754 36948 ft 508 kts 133°
2026-05-06 09:32 31.79932 117.27306 36954 ft 512 kts 123°
2026-05-06 09:32 31.78324 117.31045 36952 ft 514 kts 112°
2026-05-06 09:32 31.77311 117.35079 36954 ft 516 kts 101°
2026-05-06 09:33 31.76457 117.43461 36959 ft 517 kts 95°
2026-05-06 09:33 31.75926 117.51892 36962 ft 518 kts 94°
2026-05-06 09:34 31.75407 117.60259 36965 ft 517 kts 94°
2026-05-06 09:34 31.74837 117.68690 36965 ft 517 kts 95°
2026-05-06 09:35 31.74239 117.77117 36965 ft 517 kts 95°
2026-05-06 09:35 31.73632 117.85536 36967 ft 517 kts 95°
2026-05-06 09:36 31.73020 117.93959 36966 ft 517 kts 95°
2026-05-06 09:36 31.72404 118.02371 36968 ft 518 kts 95°
2026-05-06 09:37 31.71781 118.10809 36969 ft 518 kts 95°
2026-05-06 09:37 31.71191 118.19186 36970 ft 518 kts 94°
2026-05-06 09:38 31.70610 118.27613 36970 ft 518 kts 94°
2026-05-06 09:38 31.70020 118.36052 36970 ft 518 kts 94°
2026-05-06 09:39 31.69423 118.44474 36972 ft 516 kts 94°
2026-05-06 09:39 31.68820 118.52869 36968 ft 515 kts 94°
2026-05-06 09:40 31.68216 118.61199 36965 ft 515 kts 94°
2026-05-06 09:40 31.67296 118.73757 36958 ft 514 kts 94°
2026-05-06 09:41 31.66677 118.82111 36956 ft 513 kts 95°
2026-05-06 09:41 31.66053 118.90459 36956 ft 513 kts 95°
2026-05-06 09:42 31.65424 118.98805 36960 ft 513 kts 95°
2026-05-06 09:42 31.64814 119.07149 36981 ft 512 kts 94°
2026-05-06 09:43 31.64379 119.15485 36986 ft 512 kts 92°
2026-05-06 09:43 31.64036 119.23825 36987 ft 512 kts 92°
2026-05-06 09:44 31.63692 119.32182 36984 ft 511 kts 92°
2026-05-06 09:44 31.63325 119.40448 36986 ft 509 kts 92°
2026-05-06 09:45 31.62936 119.48749 36992 ft 509 kts 92°
2026-05-06 09:45 31.62533 119.57050 36805 ft 507 kts 92°
2026-05-06 09:46 31.62332 119.61158 36460 ft 502 kts 92°
2026-05-06 09:46 31.62131 119.65247 35896 ft 503 kts 92°
2026-05-06 09:46 31.61932 119.69370 35166 ft 508 kts 92°
2026-05-06 09:46 31.61742 119.73532 34432 ft 513 kts 92°
2026-05-06 09:47 31.61551 119.77735 33662 ft 518 kts 92°
2026-05-06 09:47 31.61357 119.81974 32813 ft 522 kts 92°
2026-05-06 09:47 31.61160 119.86243 31980 ft 526 kts 93°
2026-05-06 09:47 31.60961 119.90489 31163 ft 529 kts 93°
2026-05-06 09:48 31.60757 119.94823 30289 ft 534 kts 94°
2026-05-06 09:48 31.60549 119.99193 29303 ft 538 kts 94°
2026-05-06 09:48 31.60340 120.03569 28650 ft 535 kts 94°
2026-05-06 09:48 31.60131 120.07915 28032 ft 531 kts 94°
2026-05-06 09:49 31.59921 120.12229 27400 ft 527 kts 94°
2026-05-06 09:49 31.59712 120.16516 26787 ft 523 kts 94°
2026-05-06 09:49 31.59503 120.20763 26180 ft 520 kts 94°
2026-05-06 09:49 31.59296 120.24934 25581 ft 516 kts 94°
2026-05-06 09:50 31.59085 120.29122 24990 ft 512 kts 94°
2026-05-06 09:50 31.58536 120.33215 24420 ft 506 kts 107°
2026-05-06 09:50 31.57478 120.37124 23873 ft 500 kts 110°
2026-05-06 09:50 31.56335 120.40958 23295 ft 496 kts 110°
2026-05-06 09:51 31.55195 120.44760 22680 ft 491 kts 110°
2026-05-06 09:51 31.54071 120.48527 22063 ft 487 kts 110°
2026-05-06 09:51 31.52960 120.52260 21470 ft 482 kts 110°
2026-05-06 09:51 31.51878 120.55904 20934 ft 477 kts 110°
2026-05-06 09:52 31.50791 120.59564 20366 ft 473 kts 110°
2026-05-06 09:52 31.49718 120.63178 19825 ft 468 kts 110°
2026-05-06 09:52 31.48651 120.66768 19289 ft 464 kts 111°
2026-05-06 09:52 31.47595 120.70318 18745 ft 459 kts 111°
2026-05-06 09:53 31.46545 120.73844 18231 ft 455 kts 111°
2026-05-06 09:53 31.45507 120.77324 17643 ft 450 kts 111°
2026-05-06 09:53 31.44496 120.80714 16931 ft 432 kts 111°
2026-05-06 09:53 31.43480 120.84004 16197 ft 430 kts 111°
2026-05-06 09:54 31.42446 120.87301 15479 ft 432 kts 111°
2026-05-06 09:54 31.41415 120.90594 14912 ft 429 kts 111°
2026-05-06 09:54 31.40402 120.93836 14522 ft 421 kts 111°
2026-05-06 09:54 31.39406 120.97049 13950 ft 419 kts 110°
2026-05-06 09:55 31.38432 121.00251 13360 ft 416 kts 110°
2026-05-06 09:55 31.37468 121.03430 12804 ft 412 kts 110°
2026-05-06 09:55 31.36512 121.06574 12275 ft 408 kts 110°
2026-05-06 09:55 31.35566 121.09683 11747 ft 404 kts 111°
2026-05-06 09:56 31.34635 121.12758 11300 ft 398 kts 110°
2026-05-06 09:56 31.34038 121.14756 11215 ft 388 kts 110°
2026-05-06 09:56 31.33163 121.17676 11101 ft 373 kts 110°
2026-05-06 09:56 31.32052 121.21376 10952 ft 356 kts 110°
2026-05-06 09:57 31.31243 121.24063 10820 ft 345 kts 110°
2026-05-06 09:57 31.30459 121.26667 10664 ft 335 kts 110°
2026-05-06 09:57 31.29940 121.28391 10577 ft 329 kts 110°
2026-05-06 09:57 31.29191 121.30873 10458 ft 319 kts 110°
2026-05-06 09:58 31.28688 121.33344 10202 ft 317 kts 94°
2026-05-06 09:58 31.28747 121.35937 9967 ft 312 kts 83°
2026-05-06 09:58 31.29077 121.38429 9739 ft 307 kts 79°
2026-05-06 09:58 31.29517 121.40835 9405 ft 306 kts 77°
2026-05-06 09:59 31.29998 121.43259 9014 ft 308 kts 77°
2026-05-06 09:59 31.30474 121.45695 8765 ft 304 kts 77°
2026-05-06 09:59 31.30919 121.48094 8506 ft 301 kts 78°
2026-05-06 09:59 31.31340 121.50493 8159 ft 301 kts 79°
2026-05-06 10:00 31.31745 121.52899 7844 ft 300 kts 79°
2026-05-06 10:00 31.32283 121.55216 7684 ft 291 kts 63°
2026-05-06 10:00 31.33580 121.56942 7507 ft 281 kts 30°
2026-05-06 10:00 31.35391 121.57599 7375 ft 268 kts
2026-05-06 10:01 31.37227 121.57705 7234 ft 261 kts 359°
2026-05-06 10:01 31.39010 121.58059 7006 ft 260 kts 18°
2026-05-06 10:01 31.40678 121.58865 6812 ft 258 kts 24°
2026-05-06 10:01 31.42261 121.59791 6552 ft 259 kts 30°
2026-05-06 10:02 31.43679 121.61073 6318 ft 257 kts 46°
2026-05-06 10:02 31.44727 121.62752 6041 ft 256 kts 64°
2026-05-06 10:02 31.45310 121.64708 5760 ft 254 kts 82°
2026-05-06 10:02 31.45387 121.66752 5526 ft 248 kts 99°
2026-05-06 10:03 31.44945 121.68660 5297 ft 241 kts 124°
2026-05-06 10:03 31.43849 121.70068 5097 ft 232 kts 146°
2026-05-06 10:03 31.42470 121.71022 5032 ft 230 kts 158°
2026-05-06 10:03 31.40976 121.71675 4996 ft 229 kts 165°
2026-05-06 10:04 31.39463 121.72226 4821 ft 227 kts 164°
2026-05-06 10:04 31.37977 121.72786 4553 ft 227 kts 163°
2026-05-06 10:04 31.36465 121.73370 4212 ft 230 kts 163°
2026-05-06 10:04 31.34931 121.73954 3878 ft 233 kts 163°
2026-05-06 10:05 31.33400 121.74535 3538 ft 228 kts 162°
2026-05-06 10:05 31.31922 121.75097 3240 ft 217 kts 163°
2026-05-06 10:05 31.30520 121.75630 2965 ft 206 kts 162°
2026-05-06 10:05 31.29193 121.76135 2726 ft 192 kts 163°
2026-05-06 10:06 31.27972 121.76598 2487 ft 179 kts 162°
2026-05-06 10:06 31.26807 121.77040 2239 ft 173 kts 163°
2026-05-06 10:06 31.25674 121.77470 2020 ft 169 kts 163°
2026-05-06 10:06 31.24568 121.77890 1790 ft 165 kts 162°
2026-05-06 10:07 31.23507 121.78293 1576 ft 154 kts 162°
2026-05-06 10:07 31.22541 121.78659 1393 ft 140 kts 161°
2026-05-06 10:07 31.21657 121.78994 1196 ft 127 kts 161°
2026-05-06 10:07 31.20832 121.79307 1049 ft 124 kts 161°
2026-05-06 10:08 31.20009 121.79619 878 ft 125 kts 160°
2026-05-06 10:08 31.19194 121.79943 679 ft 124 kts 160°
2026-05-06 10:08 31.18361 121.80254 533 ft 126 kts 161°
2026-05-06 10:08 31.17520 121.80552 397 ft 126 kts 159°
2026-05-06 10:09 31.16684 121.80886 227 ft 128 kts 161°
2026-05-06 10:09 31.15838 121.81206 54 ft 127 kts 160°
2026-05-06 10:09 31.15062 121.81501 31 ft 99 kts 164°
2026-05-06 10:09 31.14573 121.81683 31 ft 58 kts 162°
2026-05-06 10:10 31.14233 121.81810 29 ft 47 kts 162°
2026-05-06 10:10 31.13955 121.81916 28 ft 25 kts 162°
2026-05-06 10:10 31.13792 121.81962 28 ft 24 kts 177°
2026-05-06 10:10 31.13639 121.81934 28 ft 9 kts 192°
2026-05-06 10:11 31.13632 121.81933 26 ft 2 kts 192°
2026-05-06 10:11 31.13631 121.81933 26 ft 0 kts 192°
2026-05-06 10:12 31.13621 121.81930 26 ft 2 kts 192°
2026-05-06 10:12 31.13598 121.81924 29 ft 4 kts 192°
2026-05-06 10:12 31.13576 121.81906 28 ft 4 kts 236°
2026-05-06 10:13 31.13567 121.81875 30 ft 5 kts 251°
2026-05-06 10:13 31.13578 121.81832 26 ft 6 kts 314°
2026-05-06 10:13 31.13627 121.81809 26 ft 10 kts 343°
2026-05-06 10:13 31.13704 121.81781 27 ft 13 kts 343°
2026-05-06 10:14 31.13803 121.81744 27 ft 17 kts 342°
2026-05-06 10:14 31.13926 121.81697 27 ft 20 kts 342°
2026-05-06 10:14 31.14062 121.81646 27 ft 21 kts 342°
2026-05-06 10:14 31.14206 121.81592 27 ft 22 kts 342°
2026-05-06 10:15 31.14357 121.81535 27 ft 23 kts 342°
2026-05-06 10:15 31.14509 121.81477 26 ft 23 kts 342°
2026-05-06 10:15 31.14661 121.81420 27 ft 23 kts 342°
2026-05-06 10:15 31.14807 121.81364 27 ft 18 kts 342°
2026-05-06 10:16 31.14861 121.81318 27 ft 1 kts 280°
2026-05-06 10:16 31.14859 121.81304 27 ft 3 kts 257°
2026-05-06 10:16 31.14849 121.81270 27 ft 7 kts 253°
2026-05-06 10:16 31.14829 121.81197 27 ft 12 kts 252°
2026-05-06 10:17 31.14800 121.81088 27 ft 16 kts 261°
2026-05-06 10:17 31.14848 121.81027 27 ft 11 kts 343°
2026-05-06 10:17 31.14937 121.80994 27 ft 16 kts 342°
2026-05-06 10:17 31.15052 121.80950 27 ft 19 kts 342°
2026-05-06 10:18 31.15119 121.80907 27 ft 2 kts 278°
2026-05-06 10:18 31.15111 121.80886 27 ft 5 kts 251°
2026-05-06 10:18 31.15098 121.80839 27 ft 1 kts 252°
2026-05-06 10:18 31.15095 121.80829 27 ft 0 kts 252°
2026-05-06 10:19 31.15094 121.80824 27 ft 0 kts 252°